TimeEST,TemperatureF,Dew PointF,Humidity,Sea Level PressureIn,VisibilityMPH,Wind Direction,Wind SpeedMPH,Gust SpeedMPH,PrecipitationIn,Events,Conditions,WindDirDegrees,DateUTC
12:51 AM,36.0,14.0,41,29.82,10.0,WSW,9.2,19.6,N/A,,Clear,240,2014-01-20 05:51:00
1:51 AM,36.0,15.1,43,29.80,10.0,SW,17.3,23.0,N/A,,Clear,220,2014-01-20 06:51:00
2:51 AM,36.0,15.1,43,29.79,10.0,SW,15.0,24.2,N/A,,Clear,230,2014-01-20 07:51:00
3:51 AM,37.0,16.0,42,29.79,10.0,SW,13.8,29.9,N/A,,Clear,230,2014-01-20 08:51:00
4:51 AM,36.0,17.1,46,29.77,10.0,SW,11.5,20.7,N/A,,Clear,220,2014-01-20 09:51:00
5:51 AM,37.0,18.0,46,29.77,10.0,SW,10.4,24.2,N/A,,Clear,230,2014-01-20 10:51:00
6:51 AM,37.0,18.0,46,29.78,10.0,SW,13.8,21.9,N/A,,Clear,230,2014-01-20 11:51:00
7:51 AM,36.0,18.0,48,29.79,10.0,West,8.1,-,N/A,,Clear,260,2014-01-20 12:51:00
8:51 AM,37.9,19.0,47,29.80,10.0,WSW,11.5,18.4,N/A,,Clear,250,2014-01-20 13:51:00
9:51 AM,39.0,21.0,49,29.81,10.0,WSW,13.8,21.9,N/A,,Clear,250,2014-01-20 14:51:00
10:51 AM,39.0,21.9,50,29.81,10.0,West,18.4,27.6,N/A,,Scattered Clouds,270,2014-01-20 15:51:00
11:51 AM,39.9,23.0,51,29.79,10.0,West,16.1,32.2,N/A,,Clear,260,2014-01-20 16:51:00
12:51 PM,41.0,25.0,53,29.76,10.0,WNW,12.7,28.8,N/A,,Clear,290,2014-01-20 17:51:00
1:51 PM,42.1,25.0,51,29.77,10.0,WNW,17.3,24.2,N/A,,Clear,290,2014-01-20 18:51:00
2:51 PM,43.0,25.0,49,29.79,10.0,West,11.5,18.4,N/A,,Partly Cloudy,270,2014-01-20 19:51:00
3:51 PM,42.1,26.1,53,29.81,10.0,NW,10.4,18.4,N/A,,Clear,320,2014-01-20 20:51:00
4:51 PM,39.0,26.1,60,29.85,10.0,NW,6.9,-,N/A,,Scattered Clouds,320,2014-01-20 21:51:00
5:51 PM,36.0,25.0,64,29.88,10.0,NNW,8.1,-,N/A,,Clear,330,2014-01-20 22:51:00
6:51 PM,30.9,23.0,72,29.91,10.0,Calm,Calm,-,N/A,,Clear,0,2014-01-20 23:51:00
7:51 PM,30.0,24.1,79,29.92,10.0,Calm,Calm,-,N/A,,Overcast,0,2014-01-21 00:51:00
8:30 PM,30.2,26.6,86,29.86,10.0,Calm,Calm,-,N/A,,Overcast,0,2014-01-21 01:30:00
8:51 PM,30.9,26.1,82,29.92,10.0,Calm,Calm,-,N/A,,Overcast,0,2014-01-21 01:51:00
9:51 PM,33.1,25.0,72,29.91,10.0,North,4.6,-,N/A,,Overcast,360,2014-01-21 02:51:00
10:51 PM,33.1,24.1,70,29.90,10.0,Calm,Calm,-,N/A,,Overcast,0,2014-01-21 03:51:00
11:51 PM,30.9,25.0,79,29.89,10.0,Calm,Calm,-,N/A,,Overcast,0,2014-01-21 04:51:00